THORAD AGENA D DEB, 4676

Orbit data source: Space-Track

THORAD AGENA D DEB, 4676 is space debris in SSO originally from a launch on Wed, 08 Apr 1970 UTC launched from the Air Force Western Test Range (AFWTR). Debris objects in space refer to the collection of defunct objects orbiting the Earth. Examples of debris include non-operational satellites, rocket bodies, and fragments generated from explosions, collisions, or faulty payload assembly.

Loading next visibility...
Identifier
4676, 1970-025AZ
Orbit
SSO
Country
Flag of USUS
Related business
Manufacturer
Unknown
Mission
Spacecraft
Bus & Motor
Unknown
Mass
Unknown
Launch date (UTC)
1970-04-08 (56 years ago)
Launch vehicle
Unknown
Launch site
Air Force Western Test Range (AFWTR)
Object type
Payload
Rocket body
Debris
Shape & HBR
Unknown shape, 0.3 m
Radar Cross Section
Medium (>0.1 m² and <1 m²)

Expand to show TLE details & history
Last TLE update: 3 days ago

TLE from 3 days ago
0 THORAD AGENA D DEB
1  4676U 70025AZ  26171.42034235 -.00000041  00000-0  85718-5 0  9997
2  4676 100.0981 215.0057 0004941 355.7948  23.4431 13.55580457774955
Epoch: 2026-06-20T10:05Z
TLE epoch observation values (Epoch: 2026-06-20T10:05:17.579Z)
Latitude
18.94936°
Longitude
151.55971°
Altitude
1,050.723 km
Speed
7.33 km/s
True Right ascension
14h 06m 04s
True Declination
18° 50' 53"
Sunlit
Object was in daylight at epoch
Visualization orbit readout
Latitude
Unknown
Longitude
Unknown
Altitude
Unknown
Speed
Unknown
Apparent Right ascension
Unknown
Apparent Declination
Unknown
Sunlit
N/A
Visualization observer readout
Local Sidereal Time
10:01:36
Azimuth
Unknown
Elevation
Unknown
Doppler factor
Unknown
Orbital elements
Apogee altitude
1,052.782 km
Perigee altitude
1,045.442 km
Semi-major axis
7,427.249 km
Eccentricity
0.00049
Inclination
100.0981°
RAAN
215.0057°
Arg. of periapsis
355.7948°
True anomaly
23.46564°
Mean anomaly
23.4431°
Eccentric anomaly
23.45437°
Mean motion
3.39079 °/min
Orbital period
106.17 mins
BSTAR
0.0000085718

Documentation

Showing up to 5 results
|